This is the latest recevied weather packets stored in our database for station/object K5FEP. If no packets are shown the sender has not sent any weather packets the latest 10 day(s).
| Time | Temp. | Humidity | Pressure | Rain* | Wind** | Luminosity | Snow |
|---|---|---|---|---|---|---|---|
| 1777917208 | 23.89° C | 27% | 1013.6 hPa | 0 mm | - | 962 W/m² | - |
| 1777916907 | 23.89° C | 28% | 1013.4 hPa | 0 mm | - | 971 W/m² | - |
| 1777916604 | 23.89° C | 27% | 1013.6 hPa | 0 mm | - | 974 W/m² | - |
| 1777916300 | 23.89° C | 29% | 1013.6 hPa | 0 mm | - | 976 W/m² | - |
| 1777915997 | 23.33° C | 27% | 1013.8 hPa | 0 mm | - | 980 W/m² | - |
| 1777915694 | 23.33° C | 30% | 1014 hPa | 0 mm | - | 983 W/m² | - |
| 1777915391 | 23.33° C | 28% | 1014 hPa | 0 mm | - | 984 W/m² | - |
| 1777915086 | 23.33° C | 30% | 1014.1 hPa | 0 mm | - | 987 W/m² | - |
| 1777914784 | 23.33° C | 27% | 1014.2 hPa | 0 mm | - | 985 W/m² | - |
| 1777914481 | 23.33° C | 31% | 1014.2 hPa | 0 mm | - | 989 W/m² | - |
| 1777914178 | 23.33° C | 27% | 1014.3 hPa | 0 mm | - | 297 W/m² | - |
| 1777913874 | 22.78° C | 27% | 1014.7 hPa | 0 mm | - | 993 W/m² | - |
| 1777913571 | 22.78° C | 27% | 1014.7 hPa | 0 mm | - | 983 W/m² | - |
| 1777913267 | 22.22° C | 26% | 1014.8 hPa | 0 mm | - | 985 W/m² | - |
| 1777912964 | 22.78° C | 28% | 1015 hPa | 0 mm | - | 984 W/m² | - |
| 1777912660 | 22.78° C | 30% | 1014.9 hPa | 0 mm | - | 979 W/m² | - |
| 1777912356 | 22.22° C | 30% | 1015 hPa | 0 mm | - | 977 W/m² | - |
| 1777912052 | 21.67° C | 31% | 1015.1 hPa | 0 mm | - | 979 W/m² | - |
| 1777911748 | 22.22° C | 29% | 1015.1 hPa | 0 mm | - | 967 W/m² | - |
| 1777911446 | 21.67° C | 30% | 1015.2 hPa | 0 mm | - | 979 W/m² | - |
| 1777911142 | 22.22° C | 27% | 1015.2 hPa | 0 mm | - | 965 W/m² | - |
| 1777910840 | 22.22° C | 30% | 1015.2 hPa | 0 mm | - | 960 W/m² | - |
| 1777910536 | 21.67° C | 30% | 1015.3 hPa | 0 mm | - | 958 W/m² | - |
| 1777910234 | 22.22° C | 29% | 1015.4 hPa | 0 mm | - | 949 W/m² | - |
| 1777909930 | 21.67° C | 33% | 1015.3 hPa | 0 mm | - | 937 W/m² | - |
* Rain latest hour (hover to see other rain measurements)
** Current wind speed in m/s (hover to see current wind gust speed)